Starlink 31300

operational
NORAD ID: 58878 Int'l Des: 2024-020 Owner: SPXS Country: US Constellation: starlink
LEOCIRCULAR

Starlink 31300について

説明を読み込み中...

リアルタイム位置

3D地球を読み込み中...

次回通過

高度履歴

Altitude vs Time

uPlot chart will show altitude changes over time

軌道要素

1 58878U 24020C 26037.20552576 .00002245 00000-0 87937-4 0 9995
2 58878 53.1581 108.4532 0000817 69.8788 290.2301 15.30182374113259
Epoch: Feb 6, 2026 • Age: 15 hours

現在のステータス

高度 492.7 km
速度 7.62 km/s
衛星直下点 -49.20°S, 93.77°W
打ち上げ日 Jan 29, 2024
運用期間 2 years
タイプ internet

技術仕様

分類 Payload
質量 730.00 kg
乾燥質量 700.00 kg
総質量 730.00 kg
長さ 0.30 m
直径 4.10 m
スパン 29.00 m
形状 Box + pan
製造者 SPXS
バスタイプ Starlink V2M
フェーズステータス In Orbit
所有者/国 SPXS/US

大規模コンステレーション

Loading constellations...